QPF
0.20 0.16 0.14 0.15 0.19 0.23 0.18 0.16 0.14 0.14 0.12 0.10 0.09 0.08 0.07 0.09 0.08 0.08 0.08 0.10 0.13 0.15 0.17 0.13 0.09 0.04 0.02 0.01 0.01 0.01 0.02 0.01 0.01 0.00 0.00 0.00 0.00 0.00 0.00 0.00 0.00 0.00 0.00
0.25 0.18 0.15 0.16 0.18 0.22 0.25 0.23 0.20 0.21 0.22 0.19 0.15 0.14 0.12 0.09 0.09 0.09 0.10 0.12 0.17 0.18 0.19 0.17 0.12 0.08 0.04 0.02 0.01 0.01 0.02 0.02 0.02 0.01 0.01 0.01 0.00 0.00 0.00 0.00 0.00 0.00 0.00
0.30 0.22 0.18 0.18 0.18 0.19 0.23 0.27 0.25 0.23 0.21 0.20 0.18 0.16 0.14 0.10 0.11 0.12 0.13 0.14 0.14 0.16 0.16 0.13 0.10 0.08 0.06 0.05 0.03 0.02 0.03 0.02 0.02 0.01 0.01 0.00 0.00 0.01 0.00 0.00 0.00 0.00 0.00
0.27 0.24 0.21 0.19 0.21 0.22 0.23 0.25 0.28 0.28 0.23 0.21 0.18 0.14 0.12 0.11 0.10 0.12 0.13 0.12 0.13 0.11 0.10 0.10 0.09 0.08 0.07 0.05 0.04 0.04 0.03 0.02 0.02 0.02 0.01 0.01 0.01 0.01 0.01 0.01 0.00 0.00 0.00
0.22 0.25 0.22 0.19 0.24 0.27 0.26 0.23 0.23 0.25 0.25 0.21 0.18 0.14 0.12 0.09 0.08 0.09 0.11 0.09 0.09 0.10 0.09 0.07 0.09 0.09 0.09 0.07 0.06 0.06 0.05 0.04 0.03 0.03 0.03 0.02 0.01 0.01 0.01 0.01 0.01 0.00 0.00
0.11 0.12 0.13 0.16 0.18 0.20 0.24 0.25 0.22 0.21 0.19 0.19 0.19 0.17 0.12 0.09 0.08 0.09 0.09 0.08 0.07 0.07 0.07 0.06 0.05 0.05 0.08 0.08 0.07 0.07 0.07 0.06 0.05 0.05 0.05 0.04 0.03 0.02 0.01 0.01 0.00 0.00 0.00
0.04 0.05 0.07 0.11 0.14 0.14 0.17 0.21 0.21 0.18 0.15 0.17 0.19 0.17 0.16 0.12 0.11 0.10 0.11 0.10 0.08 0.07 0.06 0.06 0.07 0.04 0.04 0.05 0.06 0.08 0.08 0.08 0.07 0.06 0.06 0.06 0.05 0.04 0.03 0.02 0.01 0.01 0.01
0.04 0.05 0.08 0.10 0.13 0.15 0.19 0.21 0.23 0.21 0.15 0.16 0.16 0.14 0.12 0.11 0.11 0.10 0.10 0.09 0.08 0.10 0.10 0.07 0.07 0.05 0.05 0.03 0.02 0.05 0.06 0.07 0.08 0.08 0.07 0.06 0.07 0.05 0.03 0.02 0.01 0.01 0.01
0.04 0.04 0.06 0.09 0.11 0.11 0.17 0.22 0.19 0.19 0.16 0.14 0.15 0.14 0.10 0.07 0.06 0.08 0.08 0.08 0.09 0.09 0.13 0.09 0.05 0.04 0.04 0.03 0.02 0.02 0.03 0.04 0.06 0.08 0.08 0.07 0.05 0.04 0.04 0.03 0.02 0.01 0.01
0.03 0.03 0.04 0.05 0.07 0.09 0.16 0.22 0.21 0.20 0.18 0.16 0.18 0.16 0.12 0.09 0.07 0.06 0.08 0.08 0.08 0.07 0.08 0.07 0.06 0.05 0.05 0.04 0.02 0.02 0.02 0.02 0.03 0.06 0.08 0.07 0.05 0.04 0.03 0.03 0.04 0.03 0.01
0.02 0.03 0.04 0.04 0.04 0.06 0.10 0.16 0.24 0.27 0.25 0.23 0.20 0.17 0.16 0.15 0.10 0.07 0.06 0.08 0.07 0.04 0.04 0.04 0.05 0.06 0.05 0.03 0.03 0.03 0.03 0.02 0.01 0.03 0.05 0.06 0.07 0.05 0.04 0.04 0.05 0.06 0.04
0.01 0.02 0.03 0.04 0.03 0.04 0.05 0.06 0.10 0.16 0.21 0.25 0.23 0.19 0.19 0.20 0.16 0.12 0.09 0.07 0.06 0.04 0.04 0.04 0.04 0.04 0.04 0.03 0.01 0.02 0.03 0.03 0.02 0.02 0.03 0.05 0.06 0.06 0.06 0.06 0.07 0.08 0.08
0.01 0.01 0.03 0.03 0.04 0.04 0.05 0.05 0.06 0.07 0.11 0.16 0.20 0.20 0.18 0.17 0.15 0.13 0.14 0.13 0.09 0.06 0.05 0.04 0.03 0.02 0.02 0.02 0.02 0.02 0.02 0.02 0.01 0.01 0.02 0.03 0.03 0.03 0.04 0.05 0.07 0.09 0.10
0.01 0.01 0.02 0.02 0.03 0.04 0.04 0.05 0.08 0.08 0.09 0.11 0.15 0.17 0.17 0.15 0.19 0.15 0.14 0.14 0.15 0.14 0.10 0.06 0.04 0.03 0.03 0.02 0.03 0.03 0.02 0.03 0.03 0.02 0.02 0.01 0.02 0.02 0.02 0.02 0.03 0.04 0.05
0.00 0.01 0.01 0.02 0.02 0.03 0.03 0.04 0.04 0.06 0.08 0.10 0.12 0.13 0.15 0.16 0.17 0.16 0.15 0.14 0.14 0.15 0.12 0.09 0.08 0.07 0.05 0.04 0.04 0.03 0.02 0.02 0.02 0.02 0.01 0.01 0.01 0.01 0.01 0.01 0.02 0.02 0.02
0.01 0.01 0.01 0.02 0.02 0.03 0.03 0.03 0.03 0.03 0.05 0.07 0.09 0.11 0.11 0.13 0.14 0.14 0.14 0.15 0.16 0.17 0.13 0.11 0.11 0.11 0.08 0.06 0.04 0.03 0.02 0.02 0.01 0.01 0.01 0.01 0.01 0.01 0.01 0.02 0.01 0.01 0.02
0.01 0.01 0.01 0.01 0.01 0.02 0.03 0.03 0.03 0.03 0.04 0.05 0.07 0.08 0.08 0.10 0.11 0.11 0.11 0.13 0.15 0.15 0.14 0.11 0.11 0.13 0.11 0.06 0.04 0.03 0.02 0.01 0.01 0.01 0.00 0.01 0.00 0.00 0.01 0.01 0.01 0.00 0.01
0.01 0.01 0.01 0.01 0.01 0.02 0.03 0.03 0.02 0.03 0.04 0.04 0.05 0.06 0.07 0.08 0.09 0.09 0.10 0.11 0.11 0.12 0.15 0.15 0.14 0.15 0.13 0.08 0.05 0.03 0.02 0.01 0.01 0.00 0.00 0.00 0.00 0.00 0.00 0.01 0.01 0.01 0.01
0.01 0.01 0.01 0.01 0.01 0.01 0.02 0.03 0.03 0.03 0.04 0.04 0.04 0.05 0.04 0.05 0.08 0.08 0.08 0.09 0.10 0.11 0.13 0.14 0.16 0.16 0.15 0.12 0.08 0.05 0.03 0.02 0.01 0.00 0.00 0.00 0.00 0.00 0.00 0.00 0.01 0.00 0.01
0.01 0.01 0.01 0.01 0.02 0.02 0.02 0.03 0.03 0.04 0.05 0.04 0.04 0.04 0.03 0.03 0.03 0.06 0.07 0.08 0.09 0.10 0.13 0.14 0.15 0.18 0.17 0.17 0.14 0.09 0.05 0.02 0.01 0.01 0.00 0.00 0.00 0.00 0.00 0.00 0.00 0.00 0.00
0.01 0.01 0.01 0.01 0.01 0.01 0.02 0.02 0.03 0.04 0.04 0.05 0.04 0.04 0.03 0.02 0.02 0.02 0.03 0.06 0.07 0.08 0.10 0.13 0.14 0.18 0.17 0.17 0.14 0.10 0.09 0.05 0.02 0.02 0.01 0.00 0.00 0.00 0.00 0.00 0.00 0.00 0.00
0.01 0.01 0.01 0.02 0.02 0.02 0.02 0.02 0.03 0.04 0.04 0.04 0.04 0.04 0.03 0.03 0.02 0.01 0.01 0.02 0.04 0.06 0.07 0.09 0.11 0.13 0.17 0.14 0.13 0.13 0.11 0.08 0.04 0.02 0.01 0.01 0.00 0.00 0.00 0.00 0.00 0.00 0.00
0.01 0.01 0.01 0.02 0.01 0.02 0.03 0.02 0.02 0.03 0.04 0.04 0.04 0.03 0.03 0.02 0.02 0.01 0.01 0.01 0.01 0.03 0.04 0.06 0.08 0.10 0.13 0.15 0.13 0.11 0.10 0.08 0.06 0.04 0.02 0.02 0.01 0.00 0.00 0.00 0.00 0.00 0.00
0.01 0.01 0.01 0.01 0.01 0.01 0.02 0.03 0.02 0.02 0.03 0.04 0.04 0.04 0.03 0.02 0.01 0.01 0.01 0.01 0.01 0.01 0.01 0.03 0.05 0.08 0.11 0.12 0.12 0.11 0.10 0.09 0.07 0.06 0.05 0.03 0.02 0.01 0.00 0.00 0.01 0.01 0.00
0.01 0.01 0.01 0.01 0.01 0.01 0.02 0.03 0.02 0.02 0.02 0.03 0.04 0.05 0.04 0.02 0.01 0.02 0.01 0.01 0.01 0.01 0.01 0.01 0.02 0.04 0.08 0.12 0.14 0.12 0.10 0.08 0.07 0.05 0.05 0.04 0.02 0.02 0.01 0.00 0.01 0.01 0.01
0.01 0.01 0.01 0.02 0.02 0.02 0.03 0.03 0.02 0.02 0.02 0.02 0.04 0.05 0.04 0.03 0.01 0.01 0.01 0.01 0.01 0.01 0.01 0.01 0.01 0.02 0.04 0.09 0.12 0.13 0.10 0.07 0.05 0.05 0.04 0.04 0.03 0.02 0.01 0.01 0.00 0.00 0.01
MSLP
1013.46 1013.46 1013.42 1013.34 1013.27 1013.21 1013.17 1013.17 1013.19 1013.23 1013.29 1013.37 1013.47 1013.60 1013.76 1013.94 1014.14 1014.33 1014.51 1014.67 1014.80 1014.93 1015.06 1015.23 1015.47 1015.77 1016.15 1016.59 1017.05 1017.51 1017.96 1018.35 1018.71 1019.02 1019.32 1019.61 1019.92 1020.25 1020.59 1020.93 1021.26 1021.56 1021.83
1013.15 1013.13 1013.08 1013.02 1012.95 1012.91 1012.88 1012.87 1012.87 1012.88 1012.91 1012.96 1013.04 1013.16 1013.32 1013.51 1013.72 1013.93 1014.11 1014.27 1014.41 1014.52 1014.65 1014.81 1015.03 1015.31 1015.68 1016.10 1016.56 1017.03 1017.49 1017.92 1018.32 1018.69 1019.04 1019.39 1019.75 1020.11 1020.47 1020.81 1021.13 1021.41 1021.67
1012.76 1012.75 1012.72 1012.70 1012.70 1012.71 1012.72 1012.73 1012.72 1012.71 1012.70 1012.70 1012.73 1012.81 1012.93 1013.10 1013.29 1013.48 1013.66 1013.82 1013.94 1014.05 1014.16 1014.30 1014.50 1014.77 1015.11 1015.51 1015.96 1016.44 1016.92 1017.38 1017.83 1018.26 1018.68 1019.09 1019.49 1019.89 1020.27 1020.62 1020.94 1021.23 1021.48
1012.38 1012.38 1012.40 1012.46 1012.54 1012.62 1012.70 1012.74 1012.73 1012.69 1012.62 1012.54 1012.49 1012.49 1012.54 1012.65 1012.79 1012.95 1013.11 1013.25 1013.36 1013.46 1013.56 1013.69 1013.88 1014.13 1014.45 1014.85 1015.29 1015.77 1016.26 1016.76 1017.25 1017.73 1018.21 1018.67 1019.13 1019.56 1019.97 1020.34 1020.67 1020.96 1021.22
1012.06 1012.07 1012.15 1012.29 1012.46 1012.64 1012.77 1012.84 1012.83 1012.74 1012.58 1012.41 1012.24 1012.12 1012.07 1012.09 1012.16 1012.28 1012.40 1012.53 1012.64 1012.75 1012.86 1012.99 1013.18 1013.43 1013.74 1014.12 1014.56 1015.04 1015.54 1016.06 1016.58 1017.11 1017.63 1018.14 1018.64 1019.11 1019.54 1019.94 1020.29 1020.60 1020.89
1011.85 1011.87 1011.99 1012.19 1012.44 1012.68 1012.87 1012.95 1012.91 1012.75 1012.50 1012.19 1011.89 1011.63 1011.46 1011.37 1011.36 1011.43 1011.53 1011.66 1011.79 1011.91 1012.05 1012.22 1012.42 1012.68 1013.00 1013.38 1013.81 1014.29 1014.80 1015.33 1015.87 1016.42 1016.97 1017.52 1018.04 1018.54 1019.00 1019.41 1019.79 1020.13 1020.45
1011.75 1011.75 1011.89 1012.12 1012.41 1012.69 1012.89 1012.96 1012.87 1012.63 1012.26 1011.82 1011.37 1010.97 1010.67 1010.48 1010.40 1010.43 1010.52 1010.66 1010.82 1011.00 1011.19 1011.40 1011.64 1011.93 1012.26 1012.65 1013.08 1013.56 1014.06 1014.60 1015.15 1015.71 1016.27 1016.83 1017.37 1017.88 1018.36 1018.80 1019.20 1019.57 1019.92
1011.74 1011.70 1011.80 1012.02 1012.31 1012.59 1012.77 1012.80 1012.64 1012.30 1011.82 1011.25 1010.67 1010.15 1009.74 1009.47 1009.34 1009.34 1009.44 1009.61 1009.82 1010.06 1010.31 1010.58 1010.87 1011.20 1011.56 1011.96 1012.40 1012.87 1013.37 1013.89 1014.44 1015.00 1015.56 1016.13 1016.67 1017.19 1017.68 1018.13 1018.54 1018.93 1019.31
1011.78 1011.65 1011.69 1011.86 1012.10 1012.33 1012.46 1012.43 1012.20 1011.77 1011.19 1010.52 1009.85 1009.24 1008.76 1008.43 1008.27 1008.27 1008.39 1008.60 1008.87 1009.17 1009.49 1009.82 1010.16 1010.53 1010.91 1011.32 1011.76 1012.23 1012.72 1013.23 1013.77 1014.33 1014.89 1015.45 1016.00 1016.52 1017.01 1017.46 1017.88 1018.28 1018.67
1011.79 1011.57 1011.51 1011.60 1011.76 1011.92 1011.98 1011.88 1011.58 1011.09 1010.45 1009.73 1009.00 1008.35 1007.84 1007.49 1007.33 1007.34 1007.49 1007.74 1008.05 1008.41 1008.78 1009.15 1009.54 1009.93 1010.33 1010.74 1011.18 1011.63 1012.12 1012.63 1013.16 1013.72 1014.28 1014.84 1015.40 1015.92 1016.41 1016.86 1017.28 1017.67 1018.05
1011.75 1011.43 1011.28 1011.27 1011.34 1011.40 1011.39 1011.22 1010.88 1010.36 1009.70 1008.97 1008.25 1007.60 1007.10 1006.77 1006.63 1006.66 1006.84 1007.11 1007.45 1007.83 1008.22 1008.62 1009.01 1009.41 1009.80 1010.21 1010.64 1011.08 1011.56 1012.06 1012.60 1013.15 1013.73 1014.31 1014.87 1015.41 1015.90 1016.35 1016.76 1017.13 1017.49
1011.65 1011.25 1011.01 1010.90 1010.87 1010.86 1010.77 1010.56 1010.19 1009.67 1009.03 1008.34 1007.67 1007.08 1006.63 1006.34 1006.23 1006.29 1006.47 1006.75 1007.09 1007.46 1007.85 1008.23 1008.60 1008.98 1009.35 1009.74 1010.14 1010.57 1011.04 1011.54 1012.07 1012.64 1013.23 1013.83 1014.41 1014.97 1015.48 1015.93 1016.33 1016.69 1017.01
1011.50 1011.05 1010.73 1010.54 1010.43 1010.34 1010.19 1009.95 1009.58 1009.09 1008.51 1007.89 1007.31 1006.80 1006.43 1006.21 1006.14 1006.21 1006.40 1006.66 1006.97 1007.30 1007.64 1007.98 1008.32 1008.65 1008.99 1009.34 1009.71 1010.12 1010.57 1011.06 1011.60 1012.18 1012.78 1013.40 1014.01 1014.59 1015.11 1015.58 1015.97 1016.31 1016.61
1011.32 1010.84 1010.48 1010.22 1010.04 1009.89 1009.70 1009.43 1009.08 1008.64 1008.13 1007.62 1007.14 1006.75 1006.46 1006.31 1006.29 1006.37 1006.55 1006.78 1007.04 1007.32 1007.60 1007.88 1008.16 1008.44 1008.73 1009.04 1009.38 1009.75 1010.18 1010.65 1011.18 1011.76 1012.37 1013.00 1013.63 1014.23 1014.77 1015.25 1015.65 1015.98 1016.26
1011.12 1010.64 1010.25 1009.95 1009.72 1009.51 1009.28 1009.00 1008.67 1008.29 1007.87 1007.46 1007.11 1006.82 1006.64 1006.56 1006.58 1006.68 1006.84 1007.03 1007.25 1007.47 1007.69 1007.91 1008.13 1008.37 1008.61 1008.88 1009.18 1009.52 1009.90 1010.34 1010.84 1011.40 1012.00 1012.62 1013.25 1013.86 1014.41 1014.90 1015.31 1015.64 1015.91
1010.91 1010.43 1010.03 1009.70 1009.42 1009.16 1008.90 1008.62 1008.31 1007.97 1007.64 1007.34 1007.10 1006.93 1006.84 1006.83 1006.90 1007.01 1007.16 1007.33 1007.51 1007.68 1007.86 1008.04 1008.22 1008.42 1008.64 1008.87 1009.14 1009.43 1009.77 1010.16 1010.61 1011.12 1011.68 1012.26 1012.87 1013.46 1014.01 1014.50 1014.91 1015.25 1015.53
1010.65 1010.19 1009.78 1009.42 1009.10 1008.80 1008.51 1008.21 1007.91 1007.63 1007.37 1007.17 1007.03 1006.96 1006.96 1007.03 1007.14 1007.28 1007.43 1007.59 1007.75 1007.90 1008.06 1008.23 1008.41 1008.60 1008.80 1009.02 1009.26 1009.52 1009.81 1010.13 1010.51 1010.94 1011.42 1011.94 1012.48 1013.03 1013.56 1014.03 1014.45 1014.80 1015.09
1010.31 1009.86 1009.44 1009.06 1008.70 1008.37 1008.04 1007.73 1007.45 1007.21 1007.01 1006.89 1006.85 1006.87 1006.96 1007.09 1007.25 1007.42 1007.59 1007.75 1007.91 1008.08 1008.25 1008.43 1008.63 1008.84 1009.06 1009.29 1009.51 1009.74 1009.97 1010.23 1010.51 1010.85 1011.23 1011.66 1012.12 1012.60 1013.08 1013.53 1013.93 1014.28 1014.58
1009.85 1009.41 1008.98 1008.58 1008.19 1007.82 1007.48 1007.16 1006.89 1006.69 1006.56 1006.51 1006.55 1006.65 1006.81 1007.01 1007.22 1007.42 1007.61 1007.80 1007.98 1008.17 1008.37 1008.59 1008.83 1009.09 1009.34 1009.59 1009.81 1010.02 1010.21 1010.39 1010.60 1010.83 1011.10 1011.43 1011.80 1012.20 1012.61 1013.02 1013.41 1013.75 1014.05
1009.27 1008.82 1008.39 1007.97 1007.56 1007.18 1006.82 1006.52 1006.27 1006.11 1006.04 1006.06 1006.16 1006.34 1006.57 1006.82 1007.06 1007.30 1007.52 1007.73 1007.94 1008.16 1008.40 1008.67 1008.96 1009.27 1009.56 1009.84 1010.08 1010.28 1010.44 1010.57 1010.70 1010.84 1011.02 1011.25 1011.53 1011.85 1012.20 1012.57 1012.92 1013.25 1013.53
1008.58 1008.12 1007.69 1007.26 1006.86 1006.48 1006.13 1005.85 1005.64 1005.52 1005.51 1005.59 1005.77 1006.01 1006.28 1006.57 1006.85 1007.11 1007.34 1007.57 1007.79 1008.04 1008.31 1008.62 1008.96 1009.31 1009.65 1009.96 1010.23 1010.43 1010.58 1010.68 1010.76 1010.84 1010.96 1011.11 1011.32 1011.58 1011.88 1012.21 1012.53 1012.83 1013.10
1007.83 1007.38 1006.95 1006.54 1006.15 1005.79 1005.47 1005.22 1005.06 1005.00 1005.04 1005.19 1005.41 1005.70 1006.01 1006.33 1006.62 1006.89 1007.13 1007.35 1007.58 1007.83 1008.11 1008.44 1008.80 1009.19 1009.56 1009.90 1010.19 1010.41 1010.57 1010.67 1010.73 1010.79 1010.87 1010.99 1011.17 1011.39 1011.66 1011.96 1012.26 1012.54 1012.78
1007.12 1006.68 1006.27 1005.88 1005.52 1005.20 1004.92 1004.72 1004.60 1004.60 1004.69 1004.89 1005.16 1005.48 1005.81 1006.14 1006.43 1006.69 1006.91 1007.11 1007.32 1007.56 1007.83 1008.16 1008.52 1008.91 1009.30 1009.66 1009.97 1010.21 1010.39 1010.51 1010.59 1010.66 1010.75 1010.88 1011.06 1011.28 1011.54 1011.83 1012.11 1012.38 1012.60
1006.54 1006.12 1005.74 1005.39 1005.06 1004.78 1004.55 1004.39 1004.32 1004.36 1004.50 1004.73 1005.03 1005.36 1005.70 1006.02 1006.30 1006.54 1006.73 1006.91 1007.08 1007.28 1007.53 1007.82 1008.16 1008.53 1008.91 1009.27 1009.59 1009.85 1010.06 1010.21 1010.34 1010.45 1010.58 1010.75 1010.96 1011.21 1011.49 1011.79 1012.07 1012.33 1012.54
1006.15 1005.77 1005.43 1005.11 1004.83 1004.58 1004.39 1004.27 1004.23 1004.30 1004.46 1004.71 1005.01 1005.34 1005.68 1005.98 1006.24 1006.45 1006.62 1006.76 1006.90 1007.06 1007.26 1007.52 1007.81 1008.15 1008.50 1008.84 1009.15 1009.42 1009.65 1009.84 1010.01 1010.18 1010.37 1010.59 1010.85 1011.15 1011.47 1011.78 1012.08 1012.34 1012.54
1006.01 1005.67 1005.36 1005.08 1004.83 1004.61 1004.45 1004.35 1004.33 1004.40 1004.56 1004.80 1005.10 1005.41 1005.73 1006.01 1006.25 1006.44 1006.58 1006.70 1006.81 1006.94 1007.10 1007.31 1007.56 1007.84 1008.14 1008.44 1008.73 1008.99 1009.23 1009.45 1009.66 1009.88 1010.12 1010.40 1010.72 1011.06 1011.41 1011.76 1012.07 1012.33 1012.53
Thickness
5749 5748 5746 5745 5744 5743 5743 5742 5740 5739 5739 5739 5738 5737 5737 5737 5738 5739 5740 5741 5740 5740 5739 5739 5738 5737 5737 5736 5735 5734 5733 5732 5731 5730 5729 5729 5728 5727 5727 5726 5725 5725 5724
5742 5742 5742 5741 5740 5739 5739 5739 5737 5736 5734 5734 5735 5735 5735 5735 5736 5737 5737 5738 5738 5738 5738 5737 5737 5736 5736 5735 5735 5734 5733 5732 5731 5730 5729 5728 5728 5727 5726 5726 5725 5724 5724
5739 5739 5737 5734 5733 5732 5733 5733 5732 5731 5730 5730 5730 5732 5733 5734 5734 5735 5735 5736 5736 5736 5736 5736 5736 5736 5735 5735 5734 5734 5733 5733 5731 5730 5729 5728 5728 5727 5726 5725 5725 5724 5723
5735 5734 5731 5729 5728 5728 5727 5727 5727 5725 5725 5725 5726 5728 5729 5730 5732 5732 5733 5733 5734 5735 5735 5735 5736 5735 5735 5735 5734 5734 5733 5732 5731 5730 5729 5728 5727 5727 5726 5725 5725 5724 5723
5729 5727 5724 5723 5722 5721 5721 5722 5722 5720 5719 5721 5722 5724 5725 5727 5729 5730 5731 5732 5733 5734 5734 5734 5735 5735 5735 5735 5734 5734 5733 5732 5731 5730 5729 5728 5727 5726 5726 5725 5724 5724 5723
5721 5719 5717 5716 5716 5715 5715 5715 5714 5715 5715 5716 5718 5720 5722 5725 5726 5728 5729 5730 5731 5732 5732 5733 5734 5734 5734 5734 5734 5734 5733 5732 5731 5731 5730 5728 5727 5726 5726 5725 5724 5724 5723
5712 5712 5710 5709 5710 5709 5709 5709 5708 5708 5709 5711 5710 5711 5716 5721 5724 5726 5728 5728 5729 5730 5732 5732 5733 5733 5734 5733 5734 5734 5733 5732 5731 5731 5730 5729 5727 5726 5726 5725 5724 5723 5723
5703 5703 5702 5702 5702 5703 5703 5702 5702 5701 5703 5705 5703 5701 5702 5708 5717 5724 5724 5725 5727 5729 5730 5731 5731 5732 5732 5733 5733 5734 5733 5733 5732 5731 5730 5729 5727 5726 5725 5725 5724 5723 5723
5694 5694 5694 5693 5694 5695 5695 5695 5696 5694 5695 5698 5700 5697 5694 5697 5706 5714 5720 5723 5725 5726 5728 5730 5730 5731 5731 5732 5733 5733 5733 5733 5732 5731 5730 5729 5728 5726 5725 5725 5724 5723 5722
5684 5685 5685 5685 5686 5686 5687 5688 5690 5689 5690 5691 5694 5697 5699 5700 5698 5701 5710 5717 5721 5723 5725 5727 5729 5730 5730 5731 5732 5733 5733 5732 5732 5732 5730 5729 5728 5727 5725 5724 5724 5723 5722
5674 5675 5676 5676 5677 5678 5679 5680 5681 5683 5684 5686 5688 5691 5693 5695 5697 5697 5698 5705 5712 5719 5723 5725 5727 5728 5729 5730 5731 5731 5732 5732 5732 5731 5730 5729 5727 5726 5725 5724 5723 5722 5722
5662 5664 5666 5667 5668 5669 5670 5672 5673 5675 5677 5679 5682 5684 5686 5687 5689 5692 5693 5697 5702 5711 5717 5721 5723 5726 5727 5728 5730 5730 5730 5730 5730 5730 5729 5728 5727 5726 5725 5723 5722 5722 5722
5650 5652 5655 5656 5657 5659 5661 5663 5664 5666 5669 5671 5674 5677 5680 5683 5686 5688 5688 5690 5694 5702 5708 5714 5719 5722 5725 5726 5727 5728 5728 5728 5728 5727 5727 5726 5725 5725 5723 5723 5722 5722 5722
5639 5642 5643 5645 5647 5649 5651 5653 5655 5657 5661 5664 5667 5670 5672 5676 5679 5681 5683 5684 5685 5690 5697 5704 5712 5717 5720 5722 5724 5725 5725 5725 5725 5725 5725 5724 5724 5723 5722 5722 5721 5721 5721
5629 5630 5632 5633 5635 5638 5640 5642 5644 5647 5651 5655 5658 5662 5665 5668 5672 5675 5678 5680 5680 5679 5684 5694 5702 5710 5714 5716 5719 5720 5721 5721 5722 5721 5721 5721 5721 5721 5721 5720 5720 5720 5720
5617 5618 5619 5620 5623 5625 5628 5630 5633 5637 5640 5644 5648 5652 5656 5659 5662 5666 5669 5673 5676 5677 5677 5686 5694 5701 5706 5709 5712 5714 5715 5717 5717 5717 5718 5718 5718 5719 5719 5718 5718 5718 5719
5604 5605 5606 5607 5609 5612 5615 5618 5621 5625 5628 5632 5637 5642 5646 5649 5652 5656 5660 5664 5668 5671 5672 5678 5686 5693 5697 5700 5703 5705 5708 5709 5711 5712 5713 5714 5715 5716 5716 5716 5716 5716 5717
5592 5592 5593 5594 5596 5599 5602 5605 5608 5613 5616 5620 5625 5630 5635 5639 5642 5647 5651 5655 5659 5664 5667 5670 5676 5682 5687 5692 5695 5696 5699 5701 5704 5706 5707 5709 5710 5711 5712 5713 5713 5714 5715
5580 5580 5580 5580 5582 5585 5587 5591 5595 5600 5604 5608 5613 5618 5623 5628 5632 5636 5641 5645 5650 5656 5660 5663 5667 5673 5678 5682 5684 5688 5690 5693 5696 5698 5700 5703 5705 5706 5707 5708 5709 5710 5712
5569 5569 5569 5569 5570 5572 5574 5577 5581 5586 5590 5595 5601 5606 5611 5617 5622 5626 5630 5635 5640 5645 5651 5655 5658 5663 5668 5672 5675 5677 5679 5683 5687 5691 5693 5695 5698 5700 5701 5703 5704 5706 5707
5560 5559 5558 5558 5559 5560 5563 5565 5568 5573 5577 5582 5587 5593 5600 5606 5612 5616 5621 5624 5630 5634 5639 5644 5648 5653 5657 5661 5665 5669 5671 5673 5677 5682 5684 5687 5690 5692 5694 5696 5698 5700 5702
5551 5549 5549 5548 5549 5552 5554 5555 5557 5560 5564 5569 5574 5579 5586 5593 5600 5606 5611 5615 5621 5624 5629 5634 5638 5643 5650 5655 5659 5661 5663 5665 5668 5674 5677 5678 5681 5684 5687 5689 5692 5694 5696
5543 5541 5541 5540 5540 5541 5543 5544 5546 5548 5552 5556 5561 5567 5574 5581 5587 5592 5598 5604 5610 5616 5622 5626 5629 5636 5642 5648 5652 5654 5657 5660 5664 5668 5669 5669 5672 5674 5677 5680 5684 5687 5689
5537 5535 5535 5534 5533 5534 5535 5537 5538 5539 5542 5546 5551 5556 5561 5567 5573 5579 5584 5590 5595 5603 5610 5616 5622 5628 5634 5639 5644 5649 5652 5653 5656 5660 5663 5662 5663 5665 5668 5671 5674 5678 5681
5534 5532 5530 5529 5528 5529 5530 5531 5531 5531 5534 5538 5543 5548 5552 5556 5563 5569 5573 5577 5583 5589 5597 5605 5612 5618 5624 5630 5635 5638 5641 5643 5645 5650 5655 5657 5656 5656 5657 5660 5664 5668 5672
5532 5530 5528 5527 5526 5526 5527 5527 5527 5527 5529 5532 5536 5541 5546 5549 5553 5557 5562 5566 5571 5578 5586 5593 5598 5605 5612 5619 5625 5631 5635 5636 5638 5642 5648 5650 5649 5649 5649 5651 5654 5658 5662